Location: Bill Sadowski Park
(25.6087°N, 80.3181°W)
Time: 10:52:08
(UTC-05:00)

Hubble Space Telescope - Visible Passes

Search period start: 12 December 2017 00:00
Search period end: 22 December 2017 00:00
Orbit: 538 x 541 km, 28.5° (Epoch: 11 December)

Date Brightness Start Highest point End Pass type
(mag) Time Alt. Az. Time Alt. Az. Time Alt. Az.
12 Dec 0.8 19:04:25 10° WNW 19:08:31 58° N 19:08:42 57° NNE visible
13 Dec 0.8 18:54:14 10° WNW 18:58:21 62° N 18:59:11 49° ENE visible
14 Dec 0.7 18:44:02 10° WNW 18:48:09 68° N 18:49:44 35° E visible
15 Dec 0.7 18:33:49 10° WNW 18:37:58 77° N 18:40:23 24° E visible
15 Dec 3.9 20:15:14 10° W 20:15:46 13° W 20:15:46 13° W visible
16 Dec 0.7 18:23:36 10° WNW 18:27:45 88° NNE 18:31:09 15° ESE visible
16 Dec 3.5 20:05:10 10° W 20:06:32 18° WSW 20:06:32 18° WSW visible
17 Dec 0.9 18:13:24 10° WNW 18:17:32 78° SSW 18:21:41 10° ESE visible
17 Dec 3.1 19:55:13 10° W 19:57:28 21° SW 19:57:28 21° SW visible
18 Dec 1.2 18:03:12 10° W 18:07:18 64° SSW 18:11:24 10° ESE visible
18 Dec 3.1 19:45:23 10° WSW 19:48:14 18° SSW 19:48:34 18° SSW visible
19 Dec 3.5 19:35:51 10° WSW 19:37:55 13° SSW 19:39:50 10° S visible
